Plattsburgh, NY

5:04 PM EST on December 07, 2019 (GMT -0500)
Plattsburgh International

Weather History for KPBG - October, 2019

Change the Weather History Date:

Monday, October 28, 2019

  Actual Average Record
Temperature  
Mean Temperature 50 °F 43 °F  
Max Temperature 60 °F 53 °F 80 °F (1971)
Min Temperature 40 °F 34 °F 23 °F (1957)
Degree Days  
Heating Degree Days 15 22  
Month to date heating degree days 448 479  
Since 1 July heating degree days 640 714  
Cooling Degree Days 0 0  
Month to date cooling degree days 0 0  
Year to date cooling degree days 406 345  
Moisture  
Dew Point 48 °F    
Average Humidity 91    
Maximum Humidity 100    
Minimum Humidity 69    
Precipitation  
Precipitation 0.04 in - 1.12 in (1987)
Month to date precipitation 4.46 0.00  
Year to date precipitation 26.08  
Sea Level Pressure  
Sea Level Pressure 30.09 in    
Wind  
Wind Speed 2 mph ()    
Max Wind Speed 13 mph    
Max Gust Speed 16 mph    
Visibility 9.1 miles    
Events Rain    
T = Trace of Precipitation, MM = Missing Value Source: Averaged Metar Reports

Daily Weather History Graph

Daily Weather History Graph

Search for Another Location

Airport or City:

Astronomy

Oct. 28, 2019 Rise Set
Actual Time 7:25 AM EDT 5:48 PM EDT
Civil Twilight 6:55 AM EDT 6:18 PM EDT
Nautical Twilight 6:21 AM EDT 6:53 PM EDT
Astronomical Twilight 5:47 AM EDT 7:26 PM EDT
Moon 7:43 AM EDT (10/28) 6:32 PM EDT (10/28)
Length of Visible Light 11h 23m
Length of Day
10h 22m
New Moon, 0% of the Moon is Illuminated
Oct 28
New Moon
Nov 4
First Quarter
Nov 12
Full
Nov 19
Last Quarter
Nov 26
New

Hourly Weather History & Observations

Time (EDT) Temp. Windchill Dew Point Humidity Pressure Visibility Wind Dir Wind Speed Gust Speed Precip Events Conditions
12:33 AM 48.0 °F - 46.9 °F 96% 29.87 in 10.0 mi Calm Calm - N/A   Overcast
12:53 AM 48.0 °F - 46.9 °F 96% 29.89 in 10.0 mi Calm Calm - N/A   Overcast
1:21 AM 48.9 °F - 46.9 °F 93% 29.89 in 10.0 mi Calm Calm - N/A   Overcast
1:53 AM 48.0 °F - 46.9 °F 96% 29.91 in 10.0 mi Calm Calm - N/A   Overcast
2:53 AM 48.9 °F - 46.9 °F 93% 29.94 in 5.0 mi Calm Calm - 0.01 in Rain Light Rain
3:53 AM 48.9 °F - 48.0 °F 97% 29.97 in 5.0 mi Calm Calm - 0.01 in Rain Light Rain
4:48 AM 48.2 °F - 46.4 °F 93% 29.99 in 8.0 mi Calm Calm - 0.02 in Rain Light Rain
4:53 AM 48.9 °F - 46.9 °F 93% 29.99 in 10.0 mi Calm Calm - 0.02 in   Overcast
5:00 AM 48.9 °F - 46.9 °F 93% 29.99 in 10.0 mi Calm Calm - N/A   Overcast
5:09 AM 48.9 °F - 46.9 °F 93% 30.00 in 10.0 mi Calm Calm - N/A   Overcast
5:29 AM 48.0 °F - 46.9 °F 96% 30.01 in 10.0 mi Calm Calm - N/A   Overcast
5:53 AM 48.9 °F - 46.9 °F 93% 30.03 in 10.0 mi Calm Calm - 0.00 in   Overcast
6:53 AM 48.9 °F - 48.0 °F 97% 30.06 in 10.0 mi Calm Calm - 0.00 in   Overcast
7:49 AM 48.2 °F - 48.2 °F 100% 30.08 in 10.0 mi NNW 3.5 mph - N/A   Overcast
7:53 AM 48.9 °F - 48.0 °F 97% 30.09 in 10.0 mi North 3.5 mph - N/A   Overcast
8:27 AM 50.0 °F - 48.9 °F 96% 30.11 in 10.0 mi North 4.6 mph - N/A   Overcast
8:53 AM 51.1 °F - 48.9 °F 92% 30.12 in 10.0 mi Calm Calm - N/A   Overcast
9:53 AM 52.0 °F - 50.0 °F 93% 30.14 in 10.0 mi Calm Calm - N/A   Overcast
10:09 AM 53.1 °F - 51.1 °F 93% 30.15 in 10.0 mi SE 3.5 mph - N/A   Overcast
10:53 AM 55.0 °F - 51.1 °F 86% 30.16 in 10.0 mi SE 6.9 mph - N/A   Overcast
11:53 AM 55.0 °F - 50.0 °F 83% 30.17 in 10.0 mi SE 10.4 mph - N/A   Overcast
12:53 PM 57.0 °F - 51.1 °F 81% 30.16 in 10.0 mi SE 8.1 mph - N/A   Overcast
1:53 PM 55.9 °F - 50.0 °F 80% 30.14 in 10.0 mi SE 6.9 mph - N/A   Overcast
2:53 PM 59.0 °F - 48.9 °F 69% 30.15 in 10.0 mi SE 8.1 mph - N/A   Overcast
3:53 PM 57.9 °F - 50.0 °F 75% 30.16 in 10.0 mi SE 9.2 mph - N/A   Overcast
4:53 PM 59.0 °F - 50.0 °F 72% 30.17 in 10.0 mi SSE 10.4 mph - N/A   Mostly Cloudy
5:53 PM 57.0 °F - 48.9 °F 74% 30.17 in 10.0 mi SSE 10.4 mph - N/A   Clear
6:53 PM 55.0 °F - 48.9 °F 80% 30.19 in 10.0 mi Calm Calm - N/A   Clear
7:53 PM 50.0 °F - 48.0 °F 93% 30.20 in 10.0 mi SSW 3.5 mph - N/A   Clear
8:53 PM 48.0 °F - 46.0 °F 93% 30.20 in 10.0 mi Calm Calm - N/A   Clear
9:53 PM 48.0 °F - 46.0 °F 93% 30.21 in 10.0 mi Calm Calm - N/A   Clear
10:53 PM 44.1 °F 42.5 °F 43.0 °F 96% 30.21 in 10.0 mi WSW 3.5 mph - N/A   Clear
11:40 PM 43.0 °F - 42.1 °F 97% 30.21 in 1.8 mi Calm Calm - N/A   Clear
11:50 PM 42.8 °F - 42.8 °F 100% 30.21 in 3.0 mi Calm Calm - N/A   Clear
11:53 PM 42.1 °F - 42.1 °F 100% 30.22 in 6.0 mi Calm Calm - N/A   Clear